| time (UTC) | temp F | wind direction | speed knots | gust knots | rain 1hr in | rain 24hr in | rain mn in | humidity % | barometer mb |
| 20260507211551 | 56 | 265 | 6.1 | 15.6 | 0.00 | 1.21 | 1.21 | 78 | 999.3 |
| 20260507210052 | 57 | 282 | 7.8 | 20.0 | 0.00 | 1.21 | 1.21 | 76 | 999.1 |
| 20260507204553 | 57 | 265 | 6.1 | 19.1 | 0.00 | 1.21 | 1.21 | 76 | 999.3 |
| 20260507203049 | 58 | 233 | 7.8 | 16.5 | 0.00 | 1.21 | 1.21 | 75 | 999.2 |
| 20260507201552 | 58 | 250 | 6.1 | 13.9 | 0.00 | 1.21 | 1.21 | 74 | 998.9 |
| 20260507200043 | 58 | 244 | 8.7 | 19.1 | 0.00 | 1.21 | 1.21 | 74 | 997.9 |
| 20260507194541 | 58 | 249 | 7.8 | 17.4 | 0.00 | 1.21 | 1.21 | 74 | 997.3 |
| 20260507193039 | 58 | 237 | 7.8 | 14.8 | 0.00 | 1.21 | 1.21 | 75 | 997.6 |
| 20260507191538 | 58 | 269 | 7.8 | 15.6 | 0.00 | 1.21 | 1.21 | 75 | 997.6 |
| 20260507190037 | 58 | 243 | 7.0 | 14.8 | 0.00 | 1.21 | 1.21 | 75 | 998.7 |
| 20260507184536 | 59 | 234 | 4.3 | 15.6 | 0.00 | 1.21 | 1.21 | 76 | 999.2 |
| 20260507183037 | 59 | 271 | 6.1 | 17.4 | 0.00 | 1.21 | 1.21 | 76 | 999.2 |
| 20260507181534 | 59 | 276 | 7.0 | 15.6 | 0.00 | 1.21 | 1.21 | 76 | 1000.2 |
| 20260507180037 | 58 | 241 | 8.7 | 14.8 | 0.00 | 1.21 | 1.21 | 78 | 1000.8 |
| 20260507174541 | 58 | 294 | 5.2 | 14.8 | 0.00 | 1.21 | 1.21 | 78 | 1000.0 |
| 20260507173035 | 58 | 255 | 5.2 | 11.3 | 0.00 | 1.21 | 1.21 | 80 | 999.0 |
| 20260507171536 | 58 | 256 | 2.6 | 6.1 | 0.00 | 1.21 | 1.21 | 80 | 998.7 |
| 20260507170041 | 58 | 239 | 5.2 | 14.8 | 0.00 | 1.21 | 1.21 | 79 | 999.4 |
| 20260507164530 | 58 | 271 | 7.8 | 17.4 | 0.00 | 1.21 | 1.21 | 78 | 1000.4 |
| 20260507163025 | 58 | 261 | 7.8 | 20.9 | 0.00 | 1.21 | 1.21 | 79 | 1000.7 |
| 20260507161521 | 59 | 247 | 8.7 | 14.8 | 0.00 | 1.21 | 1.21 | 80 | 999.5 |
| 20260507160019 | 59 | 260 | 7.8 | 15.6 | 0.00 | 1.21 | 1.21 | 82 | 998.7 |
| 20260507154517 | 59 | 256 | 4.3 | 8.7 | 0.00 | 1.21 | 1.21 | 85 | 999.0 |
| 20260507153019 | 60 | 240 | 6.1 | 13.9 | 0.00 | 1.21 | 1.21 | 84 | 999.5 |
| 20260507151515 | 59 | 273 | 6.1 | 14.8 | 0.00 | 1.21 | 1.21 | 84 | 999.1 |
| 20260507150015 | 60 | 252 | 8.7 | 15.6 | 0.00 | 1.21 | 1.21 | 85 | 999.5 |
| 20260507144513 | 61 | 237 | 5.2 | 13.9 | 0.00 | 1.21 | 1.21 | 88 | 999.9 |
| 20260507143012 | 61 | 261 | 0.9 | 7.8 | 0.00 | 1.21 | 1.21 | 88 | 998.6 |
| 20260507141510 | 61 | 240 | 0.9 | 5.2 | 0.00 | 1.21 | 1.21 | 88 | 998.7 |
| 20260507140009 | 61 | 236 | 4.3 | 9.6 | 0.00 | 1.21 | 1.21 | 88 | 999.0 |
| 20260507134509 | 61 | 244 | 1.7 | 5.2 | 0.00 | 1.28 | 1.21 | 89 | 998.6 |
| 20260507133008 | 60 | 254 | 4.3 | 7.0 | 0.00 | 1.28 | 1.21 | 88 | 999.7 |
| 20260507131510 | 60 | 247 | 0.0 | 5.2 | 0.00 | 1.28 | 1.21 | 90 | 1000.3 |
| 20260507130007 | 60 | 320 | 2.6 | 10.4 | 0.00 | 1.28 | 1.21 | 90 | 1001.5 |
| 20260507124509 | 60 | 258 | 3.5 | 8.7 | 0.00 | 1.28 | 1.21 | 91 | 999.7 |
| 20260507123005 | 59 | 249 | 5.2 | 9.6 | 0.00 | 1.28 | 1.21 | 94 | 998.8 |
| 20260507121502 | 59 | 258 | 4.3 | 12.2 | 0.00 | 1.28 | 1.21 | 97 | 999.2 |
| 20260507120105 | 58 | 252 | 6.1 | 15.6 | 0.00 | 1.28 | 1.21 | 97 | 999.1 |
| 20260507114614 | 58 | 254 | 7.8 | 13.9 | 0.00 | 1.28 | 1.21 | 97 | 997.3 |
| 20260507113058 | 59 | 220 | 5.2 | 15.6 | 0.00 | 1.28 | 1.21 | 98 | 998.3 |
| 20260507111552 | 60 | 319 | 2.6 | 10.4 | 0.00 | 1.28 | 1.21 | 98 | 998.7 |
| 20260507110052 | 60 | 247 | 5.2 | 10.4 | 0.00 | 1.28 | 1.21 | 98 | 997.3 |
| 20260507104547 | 60 | 242 | 4.3 | 8.7 | 0.00 | 1.28 | 1.21 | 98 | 997.2 |
| 20260507103046 | 61 | 263 | 5.2 | 13.0 | 0.00 | 1.28 | 1.21 | 98 | 997.9 |
| 20260507101543 | 61 | 273 | 4.3 | 11.3 | 0.00 | 1.28 | 1.21 | 98 | 998.5 |
| 20260507100042 | 61 | 301 | 0.0 | 5.2 | 0.00 | 1.28 | 1.21 | 98 | 997.2 |
| 20260507094541 | 61 | 268 | 5.2 | 13.0 | 0.00 | 1.28 | 1.21 | 98 | 997.7 |
| 20260507093043 | 62 | 267 | 4.3 | 8.7 | 0.00 | 1.28 | 1.21 | 98 | 997.2 |
| 20260507091537 | 62 | 252 | 2.6 | 7.0 | 0.00 | 1.28 | 1.21 | 98 | 996.5 |
| 20260507090037 | 63 | 242 | 3.5 | 7.0 | 0.00 | 1.28 | 1.21 | 98 | 998.0 |
| 20260507084534 | 63 | 242 | 4.3 | 12.2 | 0.00 | 1.28 | 1.21 | 98 | 997.1 |
| 20260507083033 | 63 | 237 | 4.3 | 10.4 | 0.02 | 1.28 | 1.21 | 97 | 997.1 |
| 20260507081541 | 63 | 248 | 2.6 | 5.2 | 0.02 | 1.28 | 1.21 | 97 | 996.5 |
| 20260507080031 | 63 | 101 | 0.0 | 6.1 | 0.02 | 1.28 | 1.21 | 97 | 996.8 |
| 20260507074546 | 63 | 73 | 1.7 | 5.2 | 0.02 | 1.27 | 1.20 | 97 | 996.2 |
| 20260507073030 | 63 | 151 | 0.9 | 8.7 | 0.03 | 1.26 | 1.20 | 97 | 997.0 |
| 20260507071529 | 63 | 76 | 1.7 | 9.6 | 0.06 | 1.26 | 1.20 | 97 | 997.1 |
| 20260507070026 | 64 | 105 | 2.6 | 7.0 | 0.10 | 1.26 | 1.20 | 97 | 997.2 |
| 20260507064524 | 64 | 106 | 2.6 | 7.0 | 0.10 | 1.24 | 1.18 | 97 | 998.2 |
| 20260507063026 | 64 | 140 | 1.7 | 4.3 | 0.11 | 1.23 | 1.17 | 97 | 998.9 |
| 20260507061522 | 64 | 188 | 0.0 | 3.5 | 0.09 | 1.20 | 1.12 | 97 | 999.9 |
| 20260507060022 | 64 | 266 | 2.6 | 8.7 | 0.06 | 1.15 | 1.09 | 97 | 1000.2 |
| 20260507054520 | 65 | 249 | 3.5 | 7.8 | 0.05 | 1.13 | 1.08 | 97 | 1000.6 |
| 20260507053016 | 65 | 247 | 0.0 | 4.3 | 0.17 | 1.12 | 1.06 | 96 | 999.2 |
| 20260507051516 | 65 | 308 | 0.0 | 5.2 | 0.73 | 1.10 | 1.04 | 95 | 998.5 |
| 20260507050024 | 65 | 150 | 0.9 | 5.2 | 0.94 | 1.10 | 1.04 | 95 | 998.5 |
| 20260507044512 | 66 | 131 | 1.7 | 7.0 | 1.02 | 1.09 | 1.03 | 94 | 998.1 |
| 20260507043010 | 66 | 265 | 4.3 | 8.7 | 0.87 | 0.94 | 0.87 | 94 | 998.5 |
| 20260507041506 | 67 | 217 | 6.1 | 20.0 | 0.28 | 0.34 | 0.28 | 92 | 999.4 |
| 20260507040005 | 72 | 153 | 7.8 | 21.7 | 0.09 | 0.15 | 0.09 | 85 | 997.7 |
| 20260507034601 | 76 | 331 | 4.3 | 10.4 | 0.01 | 0.07 | 0.01 | 82 | 996.0 |
| 20260507033100 | 77 | 25 | 1.7 | 7.8 | 0.00 | 0.06 | 0.00 | 81 | 996.2 |
| 20260507031604 | 77 | 339 | 4.3 | 13.9 | 0.00 | 0.06 | 0.00 | 81 | 996.2 |
| 20260507030054 | 77 | 33 | 4.3 | 9.6 | 0.00 | 0.06 | 0.00 | 81 | 996.6 |
| 20260507024547 | 77 | 42 | 2.6 | 7.8 | 0.00 | 0.06 | 0.06 | 81 | 996.9 |
| 20260507023043 | 77 | 355 | 2.6 | 10.4 | 0.00 | 0.06 | 0.06 | 81 | 997.0 |
| 20260507021540 | 77 | 339 | 2.6 | 15.6 | 0.00 | 0.06 | 0.06 | 81 | 997.3 |
| 20260507020042 | 77 | 7 | 3.5 | 10.4 | 0.00 | 0.06 | 0.06 | 81 | 997.4 |
| 20260507014548 | 77 | 20 | 2.6 | 12.2 | 0.00 | 0.06 | 0.06 | 81 | 998.0 |
| 20260507013039 | 77 | 26 | 1.7 | 9.6 | 0.00 | 0.06 | 0.06 | 81 | 997.9 |
| 20260507011541 | 77 | 278 | 3.5 | 13.0 | 0.00 | 0.06 | 0.06 | 81 | 998.2 |
| 20260507010040 | 77 | 346 | 5.2 | 13.0 | 0.00 | 0.06 | 0.06 | 81 | 998.2 |
| 20260507004535 | 77 | 333 | 2.6 | 8.7 | 0.00 | 0.06 | 0.06 | 82 | 998.4 |
| 20260507003035 | 76 | 349 | 3.5 | 8.7 | 0.00 | 0.06 | 0.06 | 83 | 998.4 |
| 20260507001535 | 76 | 62 | 2.6 | 8.7 | 0.00 | 0.06 | 0.06 | 84 | 998.2 |
| 20260507000037 | 75 | 60 | 1.7 | 7.8 | 0.00 | 0.06 | 0.06 | 85 | 998.1 |
| 20260506234530 | 74 | 24 | 2.6 | 5.2 | 0.00 | 0.06 | 0.06 | 86 | 998.0 |
| 20260506233033 | 74 | 59 | 2.6 | 9.6 | 0.00 | 0.06 | 0.06 | 86 | 997.4 |
| 20260506231525 | 72 | 42 | 2.6 | 7.8 | 0.00 | 0.06 | 0.06 | 88 | 997.7 |
| 20260506230022 | 71 | 74 | 2.6 | 7.8 | 0.00 | 0.06 | 0.06 | 90 | 998.0 |
| 20260506224518 | 70 | 66 | 1.7 | 5.2 | 0.00 | 0.06 | 0.06 | 89 | 998.6 |
| 20260506223017 | 69 | 45 | 1.7 | 4.3 | 0.00 | 0.06 | 0.06 | 90 | 998.7 |
| 20260506221513 | 69 | 71 | 1.7 | 5.2 | 0.00 | 0.06 | 0.06 | 89 | 999.2 |
| 20260506220020 | 69 | 84 | 1.7 | 5.2 | 0.00 | 0.06 | 0.06 | 89 | 999.4 |
| 20260506214512 | 69 | 72 | 0.0 | 4.3 | 0.00 | 0.06 | 0.06 | 89 | 999.9 |
| 20260506213008 | 70 | 63 | 1.7 | 4.3 | 0.00 | 0.06 | 0.06 | 88 | 1000.1 |